Location: Eschertshofen
(49.3064°N, 11.5756°E)
Time: 05:26:28
(UTC+00:00)

CZ-2C R/B - Pass Details

Date: 18 September 2020
Orbit: 785 x 870 km, 98.2° (Epoch: 20 October)

Event Time Altitude Azimuth Distance (km) Brightness Sun altitude
Rises 19:15:49 0° 13° (NNE) 3,407 6.0 -19.1°
Reaches altitude 10° 19:18:11 10° 12° (NNE) 2,480 5.3 -19.4°
Maximum altitude 19:23:42 81° 287° (WNW) 874 2.8 -20.2°
Drops below altitude 10° 19:29:17 10° 200° (SSW) 2,503 5.1 -21.0°
Sets 19:31:40 0° 200° (SSW) 3,441 5.8 -21.4°
